FENGYUN 1C DEB

Satellite information

Favourite Embed

Satellite Type and Status

DEBRISIN ORBIT

Key statistics

Satellite FENGYUN 1C DEB at a glance.

Uptime

9667

Days in orbit

Revolutions

≈ 14.1

Per day

Orbit

SSO

Sun Synchronous Orbit

Inclination

98.7

Latest

Satellite identification and parameters

Extended collection of information and parameters for FENGYUN 1C DEB.

Object identification

Identified? True

Debris? True

Object name: FENGYUN 1C DEB

International designator: 1999-025LK

Object number (NORAD): 29985

Object ID (CCSDS): 29985

Country: PEOPLES REPUBLIC OF CHINA (PRC)

Current information (Y/N): Y

RCS size: MEDIUM

Orbital parameters

Period: 102.105 minutes

Inclination: 98.7147 deg

SMA: 7236.447 km

Apoapsis: 878.804 km

Periapsis: 837.82 km

RAAN: 316.4876 deg

Eccentricy: 0.00283176

Argument of periapsis: 345.5678 deg

Mean anomaly: 74.0337 deg

Mean motion: 14.10310218 rev/day

Mean motion (dot): 0.0000006 rev/day2

B* drag term: 0.000057904411 1/REarth

Two-line elements (TLE)

Creation date: Oct. 27, 2025, 2:46 a.m.

Reference frame: TEME

Reference center: EARTH

Epoch: Oct. 26, 2025, 11:18 p.m. UTC

TLE line 0: 0 FENGYUN 1C DEB

TLE line 1: 1 29985U 99025LK 25299.97139044 .00000060 00000-0 57904-4 0 9997

TLE line 2: 2 29985 98.7147 316.4876 0028318 345.5678 74.0337 14.10310218966899

Live tracking on map

Real-time ground track for satellite FENGYUN 1C DEB.

In-orbit conjunctions

A list of the most updated potential collisions computed for object FENGYUN 1C DEB.

Target Orbit TCA Probability of collision Miss distance Type
FENGYUN 1C DEB SSO 2025-01-13 16:53:01 0.0001694638 340.0 (m) DEBRIS
FENGYUN 1C DEB SSO 2024-08-04 18:09:41 0.000145441 268.0 (m) DEBRIS

Associated space launch

Chinese polar orbiting meteorological satellite

FENGYUN 1C DEB was lifted into orbit during the mission ‘Long March 4B | Feng Yun 1C’, on board a Long March 4B space rocket.

The launch took place on May 10, 1999, 1:33 a.m. from Launch Complex 7.

For more information about the launch, click the button.

Launch to space Long March 4B | Feng Yun 1C
Long March 4B | Feng Yun 1C

Agency: N/A

Status: Launch Successful

Launch date: May 10, 1999, 1:33 a.m. UTC

Rocket: Long March 4B

Launch pad: Launch Complex 7

Location: Taiyuan Satellite Launch Center, People's Republic of China

...

Latest news about this satellite

There are no fresh news available about this satellite. Check back as we update our databases every day.


Newsletter sign-up

Weekly statistics, charts and insights to help you stay on top of the space industry.